CZ-3C DEB, 40178

Orbit data source: Space-Track

CZ-3C DEB, 40178 is space debris in HEO originally from a launch on Sun, 31 Oct 2010 UTC launched from the Xichang Space Center, China (XSC). Debris objects in space refer to the collection of defunct objects orbiting the Earth. Examples of debris include non-operational satellites, rocket bodies, and fragments generated from explosions, collisions, or faulty payload assembly.

Loading next visibility...
Identifier
40178, 2010-057AG
Orbit
HEO
Country
Flag of CNCN / PRC
Related business
Manufacturer
CALT
Mission
Spacecraft
Bus & Motor
Unknown
Mass
Unknown
Launch date (UTC)
2010-10-31 (15 years ago)
Launch vehicle
Unknown
Launch site
Xichang Space Center, China (XSC)
Object type
Payload
Rocket body
Debris
Shape & HBR
Unknown shape, 0.1 m
Radar Cross Section
Medium (>0.1 m² and <1 m²)

Expand to show TLE details & history
Last TLE update: 3 days ago

TLE from 3 days ago
0 CZ-3C DEB
1 40178U 10057AG  25298.40016904 -.00000067  00000-0 -47654-2 0  9996
2 40178  19.7745   2.0988 7214800  81.1850 357.5609  2.09757680 27241
Epoch: 2025-10-25T09:36Z
TLE epoch observation values (Epoch: 2025-10-25T09:36:14.605Z)
Latitude
17.37312°
Longitude
-116.0872°
Altitude
982.167 km
Speed
9.637 km/s
True Right ascension
04h 08m 01s
True Declination
17° 16' 42"
Sunlit
Object was in full shadow at epoch
Visualization orbit readout
Latitude
Unknown
Longitude
Unknown
Altitude
Unknown
Speed
Unknown
Apparent Right ascension
Unknown
Apparent Declination
Unknown
Sunlit
N/A
Visualization observer readout
Local Sidereal Time
19:52:56
Azimuth
Unknown
Elevation
Unknown
Doppler factor
Unknown
Orbital elements
Apogee altitude
38,006.294 km
Perigee altitude
802.865 km
Semi-major axis
25,782.717 km
Eccentricity
0.72148
Inclination
19.7745°
RAAN
2.0988°
Arg. of periapsis
81.185°
True anomaly
338.65034°
Mean anomaly
357.5609°
Eccentric anomaly
351.3283°
Mean motion
0.52426 °/min
Orbital period
686.68 mins
BSTAR
-0.0047654
Loading maneuver chart data...
Computing Atmospheric mass density...
Loading historical data...
Loading historical data...
Loading historical data...
Loading historical data...
Loading historical data...
Loading historical data...
Loading historical data...

Documentation

Showing up to 5 results
|